TimeCDT,TemperatureF,Dew PointF,Humidity,Sea Level PressureIn,VisibilityMPH,Wind Direction,Wind SpeedMPH,Gust SpeedMPH,PrecipitationIn,Events,Conditions,WindDirDegrees,DateUTC
12:15 AM,53.6,53.6,100,30.14,5.0,Calm,Calm,-,N/A,,Overcast,0,2013-10-28 05:15:00
12:35 AM,53.6,53.6,100,30.14,5.0,Calm,Calm,-,N/A,,Overcast,0,2013-10-28 05:35:00
12:55 AM,53.6,53.6,100,30.14,3.0,Calm,Calm,-,N/A,,Overcast,0,2013-10-28 05:55:00
1:15 AM,53.6,53.6,100,30.14,5.0,Calm,Calm,-,N/A,,Overcast,0,2013-10-28 06:15:00
1:35 AM,53.6,53.6,100,30.14,1.8,Calm,Calm,-,N/A,,Overcast,0,2013-10-28 06:35:00
1:55 AM,51.8,51.8,100,30.15,0.5,Calm,Calm,-,N/A,Fog,Fog,0,2013-10-28 06:55:00
2:15 AM,51.8,51.8,100,30.15,2.5,Calm,Calm,-,N/A,,Overcast,0,2013-10-28 07:15:00
2:35 AM,51.8,51.8,100,30.15,1.2,Calm,Calm,-,N/A,,Overcast,0,2013-10-28 07:35:00
2:55 AM,50.0,50.0,100,30.15,1.0,Calm,Calm,-,N/A,,Overcast,0,2013-10-28 07:55:00
3:15 AM,50.0,50.0,100,30.15,4.0,Calm,Calm,-,N/A,,Scattered Clouds,0,2013-10-28 08:15:00
3:35 AM,50.0,50.0,100,30.15,4.0,Calm,Calm,-,N/A,,Mostly Cloudy,0,2013-10-28 08:35:00
3:55 AM,50.0,50.0,100,30.16,3.0,Calm,Calm,-,N/A,,Mostly Cloudy,0,2013-10-28 08:55:00
4:15 AM,50.0,50.0,100,30.16,2.0,Calm,Calm,-,N/A,,Overcast,0,2013-10-28 09:15:00
4:35 AM,51.8,51.8,100,30.16,5.0,Calm,Calm,-,N/A,,Mostly Cloudy,0,2013-10-28 09:35:00
4:55 AM,51.8,51.8,100,30.17,5.0,Calm,Calm,-,N/A,,Overcast,0,2013-10-28 09:55:00
5:15 AM,51.8,51.8,100,30.17,5.0,Calm,Calm,-,N/A,,Overcast,0,2013-10-28 10:15:00
5:35 AM,51.8,51.8,100,30.18,1.5,Calm,Calm,-,N/A,,Overcast,0,2013-10-28 10:35:00
5:55 AM,53.6,53.6,100,30.18,2.5,Calm,Calm,-,N/A,,Overcast,0,2013-10-28 10:55:00
6:15 AM,51.8,51.8,100,30.18,4.0,Calm,Calm,-,N/A,,Overcast,0,2013-10-28 11:15:00
6:35 AM,51.8,51.8,100,30.19,3.0,Calm,Calm,-,N/A,,Overcast,0,2013-10-28 11:35:00
6:55 AM,53.6,53.6,100,30.19,5.0,Calm,Calm,-,N/A,,Overcast,0,2013-10-28 11:55:00
7:15 AM,53.6,53.6,100,30.20,5.0,Calm,Calm,-,N/A,,Overcast,0,2013-10-28 12:15:00
7:35 AM,53.6,53.6,100,30.21,5.0,Calm,Calm,-,N/A,,Overcast,0,2013-10-28 12:35:00
7:55 AM,53.6,53.6,100,30.22,6.0,Calm,Calm,-,N/A,,Overcast,0,2013-10-28 12:55:00
8:15 AM,53.6,53.6,100,30.23,3.0,Calm,Calm,-,N/A,,Mostly Cloudy,0,2013-10-28 13:15:00
8:35 AM,53.6,53.6,100,30.24,4.0,Calm,Calm,-,N/A,,Overcast,0,2013-10-28 13:35:00
8:55 AM,55.4,53.6,94,30.25,5.0,Calm,Calm,-,N/A,,Overcast,0,2013-10-28 13:55:00
9:15 AM,55.4,53.6,94,30.25,5.0,Calm,Calm,-,N/A,,Overcast,0,2013-10-28 14:15:00
9:35 AM,55.4,53.6,94,30.25,5.0,Calm,Calm,-,N/A,,Overcast,0,2013-10-28 14:35:00
9:55 AM,55.4,55.4,100,30.26,7.0,Calm,Calm,-,N/A,,Overcast,0,2013-10-28 14:55:00
10:15 AM,55.4,55.4,100,30.26,7.0,Calm,Calm,-,N/A,,Overcast,0,2013-10-28 15:15:00
10:35 AM,55.4,55.4,100,30.26,4.0,Calm,Calm,-,N/A,,Overcast,0,2013-10-28 15:35:00
10:55 AM,57.2,55.4,94,30.26,8.0,Calm,Calm,-,N/A,,Overcast,0,2013-10-28 15:55:00
11:15 AM,57.2,55.4,94,30.26,5.0,Calm,Calm,-,N/A,,Overcast,0,2013-10-28 16:15:00
11:35 AM,59.0,55.4,88,30.26,1.5,Calm,Calm,-,N/A,,Overcast,0,2013-10-28 16:35:00
11:55 AM,60.8,55.4,82,30.25,4.0,SSW,3.5,-,N/A,,Haze,200,2013-10-28 16:55:00
12:15 PM,60.8,55.4,82,30.25,10.0,SSW,8.1,-,N/A,,Overcast,210,2013-10-28 17:15:00
12:35 PM,62.6,55.4,77,30.24,10.0,SSW,11.5,16.1,N/A,,Overcast,210,2013-10-28 17:35:00
12:55 PM,62.6,55.4,77,30.23,10.0,SW,6.9,-,N/A,,Overcast,230,2013-10-28 17:55:00
1:15 PM,62.6,55.4,77,30.22,10.0,WSW,9.2,-,N/A,,Overcast,240,2013-10-28 18:15:00
1:35 PM,62.6,55.4,77,30.21,10.0,WSW,5.8,-,N/A,,Overcast,250,2013-10-28 18:35:00
1:55 PM,62.6,55.4,77,30.21,10.0,WSW,4.6,-,N/A,,Overcast,240,2013-10-28 18:55:00
2:15 PM,64.4,55.4,73,30.20,10.0,South,9.2,-,N/A,,Mostly Cloudy,190,2013-10-28 19:15:00
2:35 PM,64.4,55.4,73,30.20,10.0,SSW,8.1,-,N/A,,Partly Cloudy,200,2013-10-28 19:35:00
2:55 PM,64.4,55.4,73,30.20,10.0,SSW,6.9,-,N/A,,Scattered Clouds,210,2013-10-28 19:55:00
3:15 PM,64.4,55.4,73,30.21,10.0,SSW,4.6,-,N/A,,Scattered Clouds,210,2013-10-28 20:15:00
3:35 PM,64.4,55.4,73,30.21,10.0,SSW,5.8,-,N/A,,Mostly Cloudy,200,2013-10-28 20:35:00
3:55 PM,64.4,55.4,73,30.21,10.0,SW,5.8,-,N/A,,Overcast,220,2013-10-28 20:55:00
4:15 PM,64.4,55.4,73,30.22,10.0,SW,4.6,-,N/A,,Scattered Clouds,220,2013-10-28 21:15:00
4:35 PM,64.4,55.4,73,30.22,10.0,Calm,Calm,-,N/A,,Mostly Cloudy,0,2013-10-28 21:35:00
4:55 PM,64.4,55.4,73,30.22,10.0,Calm,Calm,-,N/A,,Overcast,0,2013-10-28 21:55:00
5:15 PM,64.4,55.4,73,30.23,10.0,Calm,Calm,-,N/A,,Overcast,0,2013-10-28 22:15:00
5:35 PM,64.4,57.2,77,30.23,10.0,Calm,Calm,-,N/A,,Overcast,0,2013-10-28 22:35:00
5:55 PM,62.6,57.2,82,30.23,10.0,Calm,Calm,-,N/A,,Overcast,0,2013-10-28 22:55:00
6:15 PM,62.6,57.2,82,30.24,10.0,Calm,Calm,-,N/A,,Overcast,0,2013-10-28 23:15:00
6:35 PM,59.0,57.2,94,30.24,10.0,Calm,Calm,-,N/A,,Overcast,0,2013-10-28 23:35:00
6:55 PM,59.0,57.2,94,30.25,10.0,Calm,Calm,-,N/A,,Overcast,0,2013-10-28 23:55:00
7:15 PM,57.2,55.4,94,30.25,10.0,Calm,Calm,-,N/A,,Scattered Clouds,0,2013-10-29 00:15:00
7:35 PM,57.2,55.4,94,30.26,10.0,Calm,Calm,-,N/A,,Clear,0,2013-10-29 00:35:00
7:55 PM,55.4,55.4,100,30.26,9.0,Calm,Calm,-,N/A,,Clear,0,2013-10-29 00:55:00
8:15 PM,55.4,55.4,100,30.26,5.0,Calm,Calm,-,N/A,,Partly Cloudy,0,2013-10-29 01:15:00
8:35 PM,53.6,53.6,100,30.26,7.0,Calm,Calm,-,N/A,,Partly Cloudy,0,2013-10-29 01:35:00
8:55 PM,53.6,53.6,100,30.27,8.0,Calm,Calm,-,N/A,,Scattered Clouds,0,2013-10-29 01:55:00
9:15 PM,53.6,53.6,100,30.27,5.0,Calm,Calm,-,N/A,,Partly Cloudy,0,2013-10-29 02:15:00
9:35 PM,51.8,51.8,100,30.27,8.0,Calm,Calm,-,N/A,,Mostly Cloudy,0,2013-10-29 02:35:00
9:55 PM,51.8,51.8,100,30.28,8.0,Calm,Calm,-,N/A,,Mostly Cloudy,0,2013-10-29 02:55:00
10:15 PM,51.8,51.8,100,30.28,10.0,Calm,Calm,-,N/A,,Mostly Cloudy,0,2013-10-29 03:15:00
10:35 PM,51.8,50.0,94,30.28,8.0,Calm,Calm,-,N/A,,Overcast,0,2013-10-29 03:35:00
10:55 PM,51.8,51.8,100,30.28,5.0,Calm,Calm,-,N/A,,Overcast,0,2013-10-29 03:55:00
11:15 PM,51.8,50.0,94,30.28,10.0,Calm,Calm,-,N/A,,Overcast,0,2013-10-29 04:15:00
11:35 PM,50.0,50.0,100,30.27,4.0,Calm,Calm,-,N/A,,Overcast,0,2013-10-29 04:35:00
11:55 PM,50.0,50.0,100,30.27,0.8,Calm,Calm,-,N/A,,Overcast,0,2013-10-29 04:55:00